Flag for South Africa Weather past 2 weeks in Pretoria, South Africa

Now
54 °F

Cool.


Feels Like: 52 °F
Forecast: 54 / 73 °F
Wind: 6 mph from North

Location: Waterkloof Lmb

Current Time: Apr 19, 2015 at 6:55:27 AM

Latest Report: Apr 19, 2015 at 6:00 AM


Visibility: N/A

Pressure: 30.24 "Hg

Humidity: 94%

Dew point: 52 °F

Location of PretoriaLocation

Historic Weather in Pretoria — Graph

°F

Pretoria temperature yesterday

Maximum temperature yesterday: 63 °F (at 2:00 PM)
Minimum temperature yesterday: 54 °F (at 9:00 PM)
Average temperature yesterday: 58 °F

Past Weeks' High & Low Weather Summary

 TemperatureHumidityPressure
High79 °F (Apr 6, 2:00 PM)100% (Apr 9, 6:00 AM)30.42 "Hg (Apr 9, 6:00 AM)
Low48 °F (Apr 10, 3:00 AM)17% (Apr 16, 4:00 PM)30.01 "Hg (Apr 5, 4:00 AM)
Average62 °F65%30.23 "Hg
* Reported Apr 4 6:00 AM — Apr 19 6:00 AM, Pretoria, Weather by CustomWeather, © 2015

Note: Actual official high and low records may vary slightly from our data, if they occured in-between our weather recording intervals... More about our weather records

Advertising

Pretoria weather history for previous 24 hours

 ConditionsComfort  
Time TempWeatherWind HumidityBarometerVisibility
6:00 AM
Sun, Apr 19
54 °FCool.6 mph94%30.24 "HgN/A
5:00 AM55 °FCool.8 mph94%30.24 "HgN/A
4:00 AM55 °FCool.9 mph94%30.24 "HgN/A
3:00 AM55 °FCool.6 mph88%30.27 "HgN/A
2:00 AM54 °FCool.5 mph94%30.27 "HgN/A
1:00 AM54 °FCool.7 mph88%30.30 "HgN/A
12:00 AM55 °FCool.7 mph82%30.30 "HgN/A
11:00 PM
Sat, Apr 18
55 °FCool.5 mph88%30.30 "HgN/A
10:00 PM54 °FCool.No wind94%30.33 "HgN/A
9:00 PM54 °FCool.3 mph94%30.33 "HgN/A
8:00 PM55 °FCool.2 mph82%30.30 "HgN/A
7:00 PM55 °FCool.5 mph94%30.27 "HgN/A
6:00 PM57 °FCool.6 mph88%30.27 "HgN/A
5:00 PM57 °FCool.7 mph88%30.24 "HgN/A
4:00 PM59 °FCool.8 mph77%30.27 "HgN/A
3:00 PM61 °FCool.10 mph72%30.27 "HgN/A
2:00 PM63 °FMild.6 mph73%30.30 "HgN/A
1:00 PM59 °FCool.10 mph88%30.33 "HgN/A
12:00 PM61 °FCool.6 mph77%30.36 "HgN/A
11:00 AM61 °FCool.7 mph88%30.36 "HgN/A
10:00 AM61 °FCool.8 mph77%30.36 "HgN/A
Weather by CustomWeather, © 2015

See weather overviewHow to use our weather pages